Lid_Strength_Index
16 16 16 16 16 15 15 14 14 14 14 14 14 13 13 11 11 10 10 9 7 7 8 8 8 8 8 7 7 6 7 6 6 6 7 6 6 9 9 9 9 9 8
17 16 17 17 16 16 15 15 15 15 14 14 14 13 13 12 11 11 10 9 8 8 8 9 9 8 8 7 7 7 7 6 6 8 7 7 6 7 8 8 9 10 9
17 17 17 17 17 17 16 15 15 15 15 14 14 13 12 12 12 12 11 9 9 9 9 9 9 9 8 8 7 7 7 8 6 7 8 10 9 7 8 9 9 9 9
17 17 17 17 17 16 16 16 15 15 15 15 15 15 15 15 14 13 12 11 10 10 9 10 9 9 8 8 8 6 7 7 7 7 7 7 8 8 10 9 9 9 9
17 18 18 17 16 16 17 17 16 16 16 16 15 16 16 15 14 13 12 12 11 11 10 11 10 10 9 9 8 7 7 7 7 8 8 8 8 6 8 10 10 9 9
18 18 17 16 16 17 17 17 17 17 16 16 16 16 16 16 15 14 13 13 12 12 11 11 11 11 10 9 8 7 7 7 7 7 8 9 10 10 9 8 10 11 10
18 18 17 17 17 18 17 17 18 18 17 16 16 16 16 16 15 15 14 14 14 13 13 13 12 12 11 9 9 8 7 7 8 7 8 8 9 9 9 9 10 12 11
18 18 17 17 18 18 18 18 18 18 17 17 16 16 15 15 15 15 15 14 14 14 13 13 12 12 11 10 9 8 8 8 8 8 7 8 9 9 9 9 9 12 12
18 18 17 17 18 18 18 18 18 18 17 16 16 17 17 17 17 16 16 16 15 15 14 14 13 12 11 10 10 9 8 8 8 8 8 8 9 9 10 10 9 9 12
18 18 17 17 18 18 18 18 18 18 17 17 17 17 18 17 17 17 17 16 16 16 15 14 13 12 12 11 10 9 8 8 8 8 8 8 9 9 9 9 9 8 9
18 17 17 18 18 18 19 19 18 18 17 17 18 18 18 18 18 18 18 17 17 16 15 14 13 13 12 11 9 9 9 8 8 8 8 9 9 9 10 10 10 9 9
18 17 18 18 19 19 20 20 19 19 18 19 19 19 19 19 20 19 19 17 17 16 15 14 14 13 12 11 10 9 9 8 9 9 9 9 9 10 9 10 10 10 10
18 18 18 19 20 20 20 20 20 19 19 20 20 20 20 21 21 21 20 19 19 18 16 15 15 14 13 11 10 9 8 8 8 9 9 9 9 10 10 9 10 10 10
18 18 19 19 20 20 21 21 20 20 20 21 21 21 21 22 22 23 23 22 20 18 18 17 16 15 13 10 9 9 9 8 8 8 9 9 9 10 9 9 10 10 11
18 18 19 19 20 21 21 21 21 21 21 22 24 26 23 24 25 27 26 24 22 20 20 18 17 16 13 10 9 10 9 9 9 9 10 9 9 9 8 9 9 10 11
18 18 18 19 20 20 22 22 24 23 23 26 30 30 28 28 28 30 28 26 24 22 21 20 18 17 13 9 8 10 10 10 10 10 10 11 10 10 8 8 8 9 11
18 18 18 19 19 20 22 26 26 24 27 28 32 33 33 31 31 30 28 26 24 22 21 20 18 18 16 9 9 10 11 11 11 11 11 12 11 10 9 9 8 9 9
17 17 18 19 19 21 24 26 26 28 29 30 33 32 32 31 30 30 27 27 25 24 19 19 18 17 16 10 10 10 11 11 12 12 11 12 12 10 9 9 9 10 11
16 17 17 19 22 23 26 27 30 30 30 31 32 31 31 30 31 29 29 26 23 20 20 18 18 18 17 11 10 11 12 12 12 12 12 12 12 10 8 9 10 10 11
17 18 19 22 23 26 26 27 29 30 30 30 29 29 29 29 30 28 26 25 23 18 17 17 18 18 17 13 11 11 13 13 13 14 13 12 12 10 8 9 9 10 11
18 20 22 22 24 26 26 27 28 28 27 27 27 28 27 26 26 24 22 21 21 20 22 19 18 18 17 17 11 10 13 13 14 15 15 13 11 10 9 8 9 9 9
21 22 22 24 27 26 25 27 26 27 26 25 25 25 25 21 21 22 20 20 20 19 20 20 18 17 16 14 12 11 12 12 14 15 14 14 10 9 10 9 8 9 10
23 22 24 26 27 25 24 25 26 26 25 25 26 25 24 21 21 21 20 20 20 19 19 18 19 18 16 15 12 13 13 13 14 15 14 12 11 10 12 11 10 10 11
24 24 25 26 27 25 23 23 25 25 25 26 26 24 24 23 23 20 20 21 22 21 19 18 19 18 17 14 14 15 15 14 15 17 18 15 14 13 13 14 14 13 12
24 25 24 25 26 25 25 25 25 25 26 26 25 23 23 24 23 21 22 20 19 19 21 21 19 22 18 14 12 14 15 16 16 21 22 20 19 19 18 17 17 15 15
25 24 24 24 25 25 26 25 26 25 26 25 24 24 24 25 24 24 24 17 16 15 14 14 15 16 13 12 12 13 14 15 16 26 23 22 21 21 20 20 19 17 17